Time,TemperatureF,DewpointF,PressureIn,WindDirection,WindDirectionDegrees,WindSpeedMPH,WindSpeedGustMPH,Humidity,HourlyPrecipIn,Conditions,Clouds,dailyrainin,SolarRadiationWatts/m^2,SoftwareType,DateUTC
2013-12-03 00:00:00,43.3,34.5,29.51,SSE,159,5.0,11.0,71,0.00,,---,0.00,0.00,VWS V14.01,2013-12-03 06:00:00,
2013-12-03 00:01:00,43.2,34.5,29.51,South,189,7.0,9.0,71,0.00,,---,0.00,0.00,VWS V14.01,2013-12-03 06:01:00,
2013-12-03 00:06:00,43.3,34.5,29.51,South,190,5.0,9.0,71,0.00,,---,0.00,0.00,VWS V14.01,2013-12-03 06:06:00,
2013-12-03 00:11:00,43.3,34.5,29.50,South,186,8.0,12.0,71,0.00,,---,0.00,0.00,VWS V14.01,2013-12-03 06:11:00,
2013-12-03 00:16:00,43.3,34.5,29.50,South,169,8.0,12.0,71,0.00,,---,0.00,0.00,VWS V14.01,2013-12-03 06:16:00,
2013-12-03 00:21:00,43.2,34.5,29.50,South,181,7.0,12.0,71,0.00,,---,0.00,0.00,VWS V14.01,2013-12-03 06:21:00,
2013-12-03 00:26:00,43.1,34.3,29.50,South,177,10.0,12.0,71,0.00,,---,0.00,0.00,VWS V14.01,2013-12-03 06:26:00,
2013-12-03 00:30:00,43.1,34.3,29.50,SSW,206,9.0,13.0,71,0.00,,---,0.00,0.00,VWS V14.01,2013-12-03 06:30:00,
2013-12-03 00:31:00,43.1,34.7,29.50,South,171,9.0,10.0,72,0.00,,---,0.00,0.00,VWS V14.01,2013-12-03 06:31:00,
2013-12-03 00:36:00,42.9,34.5,29.50,SSE,163,5.0,12.0,72,0.00,,---,0.00,0.00,VWS V14.01,2013-12-03 06:36:00,
2013-12-03 00:41:00,42.8,34.4,29.50,SSW,201,5.0,12.0,72,0.00,,---,0.00,0.00,VWS V14.01,2013-12-03 06:41:00,
2013-12-03 00:46:00,42.6,34.2,29.50,SSE,165,8.0,12.0,72,0.00,,---,0.00,0.00,VWS V14.01,2013-12-03 06:46:00,
2013-12-03 00:51:00,42.5,34.1,29.50,South,191,7.0,12.0,72,0.00,,---,0.00,0.00,VWS V14.01,2013-12-03 06:51:00,
2013-12-03 00:56:00,42.3,33.9,29.50,South,189,6.0,12.0,72,0.00,,---,0.00,0.00,VWS V14.01,2013-12-03 06:56:00,
2013-12-03 01:00:00,42.2,33.8,29.50,South,189,6.0,12.0,72,0.00,,---,0.00,0.00,VWS V14.01,2013-12-03 07:00:00,
2013-12-03 01:01:00,42.2,34.2,29.49,South,190,6.0,8.0,73,0.00,,---,0.00,0.00,VWS V14.01,2013-12-03 07:01:00,
2013-12-03 01:06:00,42.1,34.1,29.49,SSW,194,7.0,10.0,73,0.00,,---,0.00,0.00,VWS V14.01,2013-12-03 07:06:00,
2013-12-03 01:11:00,41.9,33.9,29.49,South,187,6.0,10.0,73,0.00,,---,0.00,0.00,VWS V14.01,2013-12-03 07:11:00,
2013-12-03 01:16:00,41.8,33.8,29.49,South,182,6.0,10.0,73,0.00,,---,0.00,0.00,VWS V14.01,2013-12-03 07:16:00,
2013-12-03 01:21:00,41.6,33.6,29.49,South,182,4.0,10.0,73,0.00,,---,0.00,0.00,VWS V14.01,2013-12-03 07:21:00,
2013-12-03 01:26:00,41.6,33.9,29.48,South,178,5.0,10.0,74,0.00,,---,0.00,0.00,VWS V14.01,2013-12-03 07:26:00,
2013-12-03 01:30:00,41.6,33.9,29.48,South,178,7.0,10.0,74,0.00,,---,0.00,0.00,VWS V14.01,2013-12-03 07:30:00,
2013-12-03 01:31:00,41.6,33.9,29.48,South,178,7.0,8.0,74,0.00,,---,0.00,0.00,VWS V14.01,2013-12-03 07:31:00,
2013-12-03 01:36:00,41.5,33.8,29.49,South,178,4.0,8.0,74,0.00,,---,0.00,0.00,VWS V14.01,2013-12-03 07:36:00,
2013-12-03 01:41:00,41.3,33.7,29.49,South,180,8.0,9.0,74,0.00,,---,0.00,0.00,VWS V14.01,2013-12-03 07:41:00,
2013-12-03 01:46:00,41.2,33.9,29.49,South,180,5.0,10.0,75,0.00,,---,0.00,0.00,VWS V14.01,2013-12-03 07:46:00,
2013-12-03 01:51:00,41.1,33.8,29.49,SSW,196,5.0,10.0,75,0.00,,---,0.00,0.00,VWS V14.01,2013-12-03 07:51:00,
2013-12-03 01:56:00,41.1,33.8,29.49,South,190,5.0,10.0,75,0.00,,---,0.00,0.00,VWS V14.01,2013-12-03 07:56:00,
2013-12-03 02:00:00,41.1,33.8,29.49,SSW,196,6.0,10.0,75,0.00,,---,0.00,0.00,VWS V14.01,2013-12-03 08:00:00,
2013-12-03 02:01:00,41.1,33.5,29.49,SSW,192,8.0,10.0,74,0.00,,---,0.00,0.00,VWS V14.01,2013-12-03 08:01:00,
2013-12-03 02:06:00,40.9,33.6,29.49,SSW,207,7.0,10.0,75,0.00,,---,0.00,0.00,VWS V14.01,2013-12-03 08:06:00,
2013-12-03 02:11:00,40.8,33.5,29.49,South,186,5.0,10.0,75,0.00,,---,0.00,0.00,VWS V14.01,2013-12-03 08:11:00,
2013-12-03 02:16:00,40.8,33.5,29.50,West,263,3.0,10.0,75,0.00,,---,0.00,0.00,VWS V14.01,2013-12-03 08:16:00,
2013-12-03 02:21:00,40.8,33.5,29.50,WNW,294,2.0,10.0,75,0.00,,---,0.00,0.00,VWS V14.01,2013-12-03 08:21:00,
2013-12-03 02:26:00,40.6,33.3,29.50,West,268,2.0,10.0,75,0.00,,---,0.00,0.00,VWS V14.01,2013-12-03 08:26:00,
2013-12-03 02:30:00,40.6,33.3,29.50,West,268,0.0,10.0,75,0.00,,---,0.00,0.00,VWS V14.01,2013-12-03 08:30:00,
2013-12-03 02:31:00,40.6,33.3,29.50,West,268,2.0,3.0,75,0.00,,---,0.00,0.00,VWS V14.01,2013-12-03 08:31:00,
2013-12-03 02:36:00,40.5,33.2,29.50,WSW,254,3.0,5.0,75,0.00,,---,0.00,0.00,VWS V14.01,2013-12-03 08:36:00,
2013-12-03 02:41:00,40.3,33.0,29.49,WSW,254,2.0,5.0,75,0.00,,---,0.00,0.00,VWS V14.01,2013-12-03 08:41:00,
2013-12-03 02:46:00,40.2,32.9,29.49,SSW,210,5.0,5.0,75,0.00,,---,0.00,0.00,VWS V14.01,2013-12-03 08:46:00,
2013-12-03 02:51:00,40.1,33.2,29.49,SSW,195,3.0,6.0,76,0.00,,---,0.00,0.00,VWS V14.01,2013-12-03 08:51:00,
2013-12-03 02:56:00,40.1,33.2,29.48,SSW,195,0.0,6.0,76,0.00,,---,0.00,0.00,VWS V14.01,2013-12-03 08:56:00,
2013-12-03 03:00:00,40.1,33.2,29.49,SSW,195,0.0,6.0,76,0.00,,---,0.00,0.00,VWS V14.01,2013-12-03 09:00:00,
2013-12-03 03:01:00,40.1,33.2,29.49,SSW,195,1.0,2.0,76,0.00,,---,0.00,0.00,VWS V14.01,2013-12-03 09:01:00,
2013-12-03 03:06:00,39.9,33.0,29.48,SSW,195,3.0,4.0,76,0.00,,---,0.00,0.00,VWS V14.01,2013-12-03 09:06:00,
2013-12-03 03:11:00,39.6,33.0,29.48,SSW,195,2.0,4.0,77,0.00,,---,0.00,0.00,VWS V14.01,2013-12-03 09:11:00,
2013-12-03 03:16:00,39.5,32.9,29.49,SSW,195,3.0,4.0,77,0.00,,---,0.00,0.00,VWS V14.01,2013-12-03 09:16:00,
2013-12-03 03:21:00,39.2,32.6,29.48,SSW,195,3.0,5.0,77,0.00,,---,0.00,0.00,VWS V14.01,2013-12-03 09:21:00,
2013-12-03 03:26:00,39.2,32.9,29.49,SSW,195,2.0,5.0,78,0.00,,---,0.00,0.00,VWS V14.01,2013-12-03 09:26:00,
2013-12-03 03:30:00,39.1,32.8,29.49,SSW,195,3.0,5.0,78,0.00,,---,0.00,0.00,VWS V14.01,2013-12-03 09:30:00,
2013-12-03 03:31:00,39.1,32.5,29.49,SSW,195,4.0,5.0,77,0.00,,---,0.00,0.00,VWS V14.01,2013-12-03 09:31:00,
2013-12-03 03:36:00,39.1,32.8,29.48,SSW,195,2.0,5.0,78,0.00,,---,0.00,0.00,VWS V14.01,2013-12-03 09:36:00,
2013-12-03 03:41:00,39.2,32.6,29.48,SSW,195,3.0,5.0,77,0.00,,---,0.00,0.00,VWS V14.01,2013-12-03 09:41:00,
2013-12-03 03:46:00,39.2,32.6,29.49,SSW,195,3.0,5.0,77,0.00,,---,0.00,0.00,VWS V14.01,2013-12-03 09:46:00,
2013-12-03 03:51:00,39.5,32.9,29.49,SSW,195,4.0,5.0,77,0.00,,---,0.00,0.00,VWS V14.01,2013-12-03 09:51:00,
2013-12-03 03:56:00,39.6,32.7,29.49,SSW,201,5.0,7.0,76,0.00,,---,0.00,0.00,VWS V14.01,2013-12-03 09:56:00,
2013-12-03 04:00:00,39.6,32.7,29.49,SSW,201,5.0,7.0,76,0.00,,---,0.00,0.00,VWS V14.01,2013-12-03 10:00:00,
2013-12-03 04:01:00,39.6,32.7,29.49,SSW,200,5.0,6.0,76,0.00,,---,0.00,0.00,VWS V14.01,2013-12-03 10:01:00,
2013-12-03 04:06:00,39.6,32.7,29.49,South,191,5.0,8.0,76,0.00,,---,0.00,0.00,VWS V14.01,2013-12-03 10:06:00,
2013-12-03 04:11:00,39.8,32.9,29.48,South,182,4.0,8.0,76,0.00,,---,0.00,0.00,VWS V14.01,2013-12-03 10:11:00,
2013-12-03 04:16:00,39.9,33.0,29.49,SW,232,5.0,8.0,76,0.00,,---,0.00,0.00,VWS V14.01,2013-12-03 10:16:00,
2013-12-03 04:21:00,39.9,32.6,29.48,SSW,195,6.0,8.0,75,0.00,,---,0.00,0.00,VWS V14.01,2013-12-03 10:21:00,
2013-12-03 04:26:00,40.2,32.6,29.48,South,186,4.0,11.0,74,0.00,,---,0.00,0.00,VWS V14.01,2013-12-03 10:26:00,
2013-12-03 04:30:00,40.2,32.6,29.48,SSW,199,9.0,12.0,74,0.00,,---,0.00,0.00,VWS V14.01,2013-12-03 10:30:00,
2013-12-03 04:31:00,40.2,32.6,29.48,South,180,4.0,10.0,74,0.00,,---,0.00,0.00,VWS V14.01,2013-12-03 10:31:00,
2013-12-03 04:36:00,40.5,32.5,29.48,SSW,194,6.0,12.0,73,0.00,,---,0.00,0.00,VWS V14.01,2013-12-03 10:36:00,
2013-12-03 04:41:00,40.8,32.5,29.48,South,190,5.0,12.0,72,0.00,,---,0.00,0.00,VWS V14.01,2013-12-03 10:41:00,
2013-12-03 04:46:00,41.1,32.8,29.48,SSW,193,7.0,12.0,72,0.00,,---,0.00,0.00,VWS V14.01,2013-12-03 10:46:00,
2013-12-03 04:51:00,41.2,32.5,29.48,SSW,193,6.0,12.0,71,0.00,,---,0.00,0.00,VWS V14.01,2013-12-03 10:51:00,
2013-12-03 04:56:00,41.3,32.3,29.48,SSW,196,6.0,12.0,70,0.00,,---,0.00,0.00,VWS V14.01,2013-12-03 10:56:00,
2013-12-03 05:00:00,41.5,32.5,29.48,SSW,205,3.0,12.0,70,0.00,,---,0.00,0.00,VWS V14.01,2013-12-03 11:00:00,
2013-12-03 05:01:00,41.5,32.5,29.48,SSW,194,7.0,10.0,70,0.00,,---,0.00,0.00,VWS V14.01,2013-12-03 11:01:00,
2013-12-03 05:06:00,41.6,32.6,29.48,SSW,194,8.0,10.0,70,0.00,,---,0.00,0.00,VWS V14.01,2013-12-03 11:06:00,
2013-12-03 05:11:00,41.6,32.6,29.47,South,188,7.0,10.0,70,0.00,,---,0.00,0.00,VWS V14.01,2013-12-03 11:11:00,
2013-12-03 05:17:00,41.6,32.6,29.48,South,190,4.0,10.0,70,0.00,,---,0.00,0.00,VWS V14.01,2013-12-03 11:17:00,
2013-12-03 05:22:00,41.5,32.5,29.48,South,178,6.0,10.0,70,0.00,,---,0.00,0.00,VWS V14.01,2013-12-03 11:22:00,
2013-12-03 05:27:00,41.2,32.5,29.48,South,182,5.0,10.0,71,0.00,,---,0.00,0.00,VWS V14.01,2013-12-03 11:27:00,
2013-12-03 05:30:00,41.1,32.4,29.48,South,180,5.0,10.0,71,0.00,,---,0.00,0.00,VWS V14.01,2013-12-03 11:30:00,
2013-12-03 05:32:00,40.9,32.2,29.47,South,184,4.0,6.0,71,0.00,,---,0.00,0.00,VWS V14.01,2013-12-03 11:32:00,
2013-12-03 05:37:00,40.8,32.5,29.47,South,184,3.0,7.0,72,0.00,,---,0.00,0.00,VWS V14.01,2013-12-03 11:37:00,
2013-12-03 05:42:00,40.6,32.3,29.47,South,178,6.0,9.0,72,0.00,,---,0.00,0.00,VWS V14.01,2013-12-03 11:42:00,
2013-12-03 05:47:00,40.5,32.2,29.47,SSW,196,3.0,9.0,72,0.00,,---,0.00,0.00,VWS V14.01,2013-12-03 11:47:00,
2013-12-03 05:52:00,40.2,32.2,29.47,South,190,6.0,9.0,73,0.00,,---,0.00,0.00,VWS V14.01,2013-12-03 11:52:00,
2013-12-03 05:57:00,39.9,32.0,29.47,South,186,5.0,9.0,73,0.00,,---,0.00,0.00,VWS V14.01,2013-12-03 11:57:00,
2013-12-03 06:00:00,39.8,31.9,29.47,South,186,5.0,9.0,73,0.00,,---,0.00,0.00,VWS V14.01,2013-12-03 12:00:00,
2013-12-03 06:02:00,39.8,31.9,29.47,South,187,4.0,7.0,73,0.00,,---,0.00,0.00,VWS V14.01,2013-12-03 12:02:00,
2013-12-03 06:07:00,39.6,31.7,29.47,South,187,4.0,7.0,73,0.00,,---,0.00,0.00,VWS V14.01,2013-12-03 12:07:00,
2013-12-03 06:12:00,39.5,31.9,29.47,South,186,4.0,7.0,74,0.00,,---,0.00,0.00,VWS V14.01,2013-12-03 12:12:00,
2013-12-03 06:17:00,39.5,31.9,29.47,South,186,3.0,7.0,74,0.00,,---,0.00,0.00,VWS V14.01,2013-12-03 12:17:00,
2013-12-03 06:22:00,39.3,31.7,29.46,South,186,4.0,7.0,74,0.00,,---,0.00,0.00,VWS V14.01,2013-12-03 12:22:00,
2013-12-03 06:27:00,39.1,31.5,29.47,South,186,3.0,7.0,74,0.00,,---,0.00,0.00,VWS V14.01,2013-12-03 12:27:00,
2013-12-03 06:30:00,39.1,31.9,29.47,South,186,4.0,7.0,75,0.00,,---,0.00,0.00,VWS V14.01,2013-12-03 12:30:00,
2013-12-03 06:32:00,39.1,31.9,29.47,South,186,4.0,6.0,75,0.00,,---,0.00,0.00,VWS V14.01,2013-12-03 12:32:00,
2013-12-03 06:37:00,38.9,31.7,29.47,South,186,4.0,6.0,75,0.00,,---,0.00,0.00,VWS V14.01,2013-12-03 12:37:00,
2013-12-03 06:42:00,38.8,31.6,29.47,South,186,3.0,6.0,75,0.00,,---,0.00,0.00,VWS V14.01,2013-12-03 12:42:00,
2013-12-03 06:47:00,38.5,31.3,29.48,South,186,0.0,6.0,75,0.00,,---,0.00,0.00,VWS V14.01,2013-12-03 12:47:00,
2013-12-03 06:52:00,38.3,31.1,29.48,South,186,1.0,6.0,75,0.00,,---,0.00,0.00,VWS V14.01,2013-12-03 12:52:00,
2013-12-03 06:57:00,38.3,31.4,29.48,South,186,1.0,6.0,76,0.00,,---,0.00,0.00,VWS V14.01,2013-12-03 12:57:00,
2013-12-03 07:00:00,38.2,31.3,29.48,South,186,0.0,6.0,76,0.00,,---,0.00,0.00,VWS V14.01,2013-12-03 13:00:00,
2013-12-03 07:02:00,38.2,31.3,29.48,South,186,0.0,2.0,76,0.00,,---,0.00,0.00,VWS V14.01,2013-12-03 13:02:00,
2013-12-03 07:07:00,38.2,31.3,29.48,South,186,0.0,2.0,76,0.00,,---,0.00,0.00,VWS V14.01,2013-12-03 13:07:00,
2013-12-03 07:12:00,38.3,31.4,29.48,South,186,2.0,4.0,76,0.00,,---,0.00,0.00,VWS V14.01,2013-12-03 13:12:00,
2013-12-03 07:17:00,38.2,31.3,29.48,South,186,0.0,4.0,76,0.00,,---,0.00,0.00,VWS V14.01,2013-12-03 13:17:00,
2013-12-03 07:22:00,38.2,31.3,29.47,South,186,2.0,4.0,76,0.00,,---,0.00,0.00,VWS V14.01,2013-12-03 13:22:00,
2013-12-03 07:27:00,38.2,31.3,29.47,South,186,2.0,4.0,76,0.00,,---,0.00,0.00,VWS V14.01,2013-12-03 13:27:00,
2013-12-03 07:30:00,38.0,31.1,29.47,South,186,0.0,4.0,76,0.00,,---,0.00,0.00,VWS V14.01,2013-12-03 13:30:00,
2013-12-03 07:32:00,38.0,31.1,29.47,South,186,2.0,3.0,76,0.00,,---,0.00,5.00,VWS V14.01,2013-12-03 13:32:00,
2013-12-03 07:37:00,38.0,31.1,29.47,South,186,3.0,3.0,76,0.00,,---,0.00,9.00,VWS V14.01,2013-12-03 13:37:00,
2013-12-03 07:42:00,38.2,31.3,29.47,South,186,3.0,3.0,76,0.00,,---,0.00,12.00,VWS V14.01,2013-12-03 13:42:00,
2013-12-03 07:47:00,38.3,31.1,29.47,South,186,2.0,3.0,75,0.00,,---,0.00,18.00,VWS V14.01,2013-12-03 13:47:00,
2013-12-03 07:52:00,38.5,31.3,29.47,South,186,2.0,3.0,75,0.00,,---,0.00,25.00,VWS V14.01,2013-12-03 13:52:00,
2013-12-03 07:57:00,38.8,31.6,29.48,South,186,4.0,4.0,75,0.00,,---,0.00,32.00,VWS V14.01,2013-12-03 13:57:00,
2013-12-03 08:00:00,38.9,31.3,29.48,South,186,3.0,4.0,74,0.00,,---,0.00,37.00,VWS V14.01,2013-12-03 14:00:00,
2013-12-03 08:02:00,38.9,31.3,29.48,South,186,3.0,4.0,74,0.00,,---,0.00,42.00,VWS V14.01,2013-12-03 14:02:00,
2013-12-03 08:07:00,39.2,31.3,29.48,South,186,3.0,5.0,73,0.00,,---,0.00,53.00,VWS V14.01,2013-12-03 14:07:00,
2013-12-03 08:12:00,39.3,31.4,29.48,South,186,2.0,5.0,73,0.00,,---,0.00,65.00,VWS V14.01,2013-12-03 14:12:00,
2013-12-03 08:17:00,39.6,31.3,29.47,South,186,3.0,5.0,72,0.00,,---,0.00,79.00,VWS V14.01,2013-12-03 14:17:00,
2013-12-03 08:22:00,39.9,31.6,29.47,South,186,4.0,5.0,72,0.00,,---,0.00,91.00,VWS V14.01,2013-12-03 14:22:00,
2013-12-03 08:27:00,40.2,31.6,29.48,South,186,3.0,5.0,71,0.00,,---,0.00,105.00,VWS V14.01,2013-12-03 14:27:00,
2013-12-03 08:30:00,40.2,31.6,29.48,South,186,1.0,5.0,71,0.00,,---,0.00,113.00,VWS V14.01,2013-12-03 14:30:00,
2013-12-03 08:32:00,40.3,31.7,29.48,South,186,1.0,3.0,71,0.00,,---,0.00,118.00,VWS V14.01,2013-12-03 14:32:00,
2013-12-03 08:37:00,40.9,31.9,29.48,South,186,3.0,3.0,70,0.00,,---,0.00,135.00,VWS V14.01,2013-12-03 14:37:00,
2013-12-03 08:42:00,41.6,31.8,29.48,South,186,1.0,4.0,68,0.00,,---,0.00,155.00,VWS V14.01,2013-12-03 14:42:00,
2013-12-03 08:47:00,42.2,32.4,29.49,South,186,0.0,5.0,68,0.00,,---,0.00,172.00,VWS V14.01,2013-12-03 14:47:00,
2013-12-03 08:52:00,42.6,32.0,29.49,South,186,3.0,5.0,66,0.00,,---,0.00,179.00,VWS V14.01,2013-12-03 14:52:00,
2013-12-03 08:57:00,43.1,32.5,29.49,South,186,0.0,5.0,66,0.00,,---,0.00,188.00,VWS V14.01,2013-12-03 14:57:00,
2013-12-03 09:00:00,43.3,32.3,29.49,South,186,3.0,5.0,65,0.00,,---,0.00,195.00,VWS V14.01,2013-12-03 15:00:00,
2013-12-03 09:02:00,43.9,32.5,29.49,South,186,2.0,3.0,64,0.00,,---,0.00,200.00,VWS V14.01,2013-12-03 15:02:00,
2013-12-03 09:07:00,44.5,32.7,29.49,South,186,4.0,4.0,63,0.00,,---,0.00,214.00,VWS V14.01,2013-12-03 15:07:00,
2013-12-03 09:12:00,44.6,32.4,29.49,South,186,2.0,5.0,62,0.00,,---,0.00,221.00,VWS V14.01,2013-12-03 15:12:00,
2013-12-03 09:17:00,44.8,32.6,29.50,South,186,2.0,5.0,62,0.00,,---,0.00,44.00,VWS V14.01,2013-12-03 15:17:00,
2013-12-03 09:22:00,44.9,32.7,29.50,South,186,1.0,5.0,62,0.00,,---,0.00,33.00,VWS V14.01,2013-12-03 15:22:00,
2013-12-03 09:27:00,45.1,33.3,29.50,South,186,0.0,5.0,63,0.00,,---,0.00,35.00,VWS V14.01,2013-12-03 15:27:00,
2013-12-03 09:30:00,45.4,33.6,29.51,South,186,1.0,5.0,63,0.00,,---,0.00,35.00,VWS V14.01,2013-12-03 15:30:00,
2013-12-03 09:32:00,45.7,33.4,29.50,South,186,4.0,4.0,62,0.00,,---,0.00,37.00,VWS V14.01,2013-12-03 15:32:00,
2013-12-03 09:37:00,45.7,33.4,29.51,South,186,2.0,4.0,62,0.00,,---,0.00,121.00,VWS V14.01,2013-12-03 15:37:00,
2013-12-03 09:42:00,46.1,33.8,29.51,South,186,2.0,5.0,62,0.00,,---,0.00,77.00,VWS V14.01,2013-12-03 15:42:00,
2013-12-03 09:47:00,46.4,34.1,29.51,South,186,3.0,5.0,62,0.00,,---,0.00,51.00,VWS V14.01,2013-12-03 15:47:00,
2013-12-03 09:52:00,46.8,34.1,29.52,South,186,3.0,5.0,61,0.00,,---,0.00,56.00,VWS V14.01,2013-12-03 15:52:00,
2013-12-03 09:57:00,47.4,34.2,29.51,South,173,7.0,8.0,60,0.00,,---,0.00,60.00,VWS V14.01,2013-12-03 15:57:00,
2013-12-03 10:00:00,47.6,34.4,29.52,South,173,0.0,8.0,60,0.00,,---,0.00,63.00,VWS V14.01,2013-12-03 16:00:00,
2013-12-03 10:02:00,48.0,34.8,29.52,South,173,2.0,4.0,60,0.00,,---,0.00,90.00,VWS V14.01,2013-12-03 16:02:00,
2013-12-03 10:07:00,48.8,35.1,29.51,South,173,0.0,7.0,59,0.00,,---,0.00,62.00,VWS V14.01,2013-12-03 16:07:00,
2013-12-03 10:12:00,49.4,35.3,29.51,South,173,1.0,7.0,58,0.00,,---,0.00,104.00,VWS V14.01,2013-12-03 16:12:00,
2013-12-03 10:17:00,49.6,34.6,29.52,South,172,4.0,7.0,56,0.00,,---,0.00,76.00,VWS V14.01,2013-12-03 16:17:00,
2013-12-03 10:22:00,50.1,34.6,29.51,South,172,4.0,7.0,55,0.00,,---,0.00,83.00,VWS V14.01,2013-12-03 16:22:00,
2013-12-03 10:27:00,50.5,35.0,29.52,South,172,0.0,7.0,55,0.00,,---,0.00,396.00,VWS V14.01,2013-12-03 16:27:00,
2013-12-03 10:30:00,51.1,35.0,29.51,South,172,0.0,7.0,54,0.00,,---,0.00,410.00,VWS V14.01,2013-12-03 16:30:00,
2013-12-03 10:32:00,51.9,34.8,29.51,South,172,0.0,1.0,52,0.00,,---,0.00,404.00,VWS V14.01,2013-12-03 16:32:00,
2013-12-03 10:37:00,53.2,34.5,29.51,South,172,0.0,2.0,49,0.00,,---,0.00,334.00,VWS V14.01,2013-12-03 16:37:00,
2013-12-03 10:42:00,53.9,34.7,29.51,South,172,0.0,2.0,48,0.00,,---,0.00,360.00,VWS V14.01,2013-12-03 16:42:00,
2013-12-03 10:47:00,54.2,34.4,29.51,South,172,2.0,2.0,47,0.00,,---,0.00,396.00,VWS V14.01,2013-12-03 16:47:00,
2013-12-03 10:52:00,54.8,34.4,29.51,South,172,6.0,6.0,46,0.00,,---,0.00,448.00,VWS V14.01,2013-12-03 16:52:00,
2013-12-03 10:57:00,54.5,33.6,29.51,SE,134,2.0,7.0,45,0.00,,---,0.00,345.00,VWS V14.01,2013-12-03 16:57:00,
2013-12-03 11:00:00,54.4,33.5,29.51,SE,136,2.0,7.0,45,0.00,,---,0.00,345.00,VWS V14.01,2013-12-03 17:00:00,
2013-12-03 11:02:00,54.2,33.3,29.50,SSE,163,7.0,7.0,45,0.00,,---,0.00,230.00,VWS V14.01,2013-12-03 17:02:00,
2013-12-03 11:07:00,54.7,34.3,29.50,SE,146,2.0,7.0,46,0.00,,---,0.00,415.00,VWS V14.01,2013-12-03 17:07:00,
2013-12-03 11:12:00,55.1,34.2,29.50,ESE,107,4.0,7.0,45,0.00,,---,0.00,422.00,VWS V14.01,2013-12-03 17:12:00,
2013-12-03 11:17:00,55.4,34.4,29.49,SE,126,4.0,7.0,45,0.00,,---,0.00,452.00,VWS V14.01,2013-12-03 17:17:00,
2013-12-03 11:22:00,55.7,34.7,29.49,ESE,122,6.0,7.0,45,0.00,,---,0.00,461.00,VWS V14.01,2013-12-03 17:22:00,
2013-12-03 11:27:00,56.2,34.6,29.48,ESE,112,6.0,7.0,44,0.00,,---,0.00,461.00,VWS V14.01,2013-12-03 17:27:00,
2013-12-03 11:30:00,56.6,34.4,29.48,ESE,113,7.0,7.0,43,0.00,,---,0.00,476.00,VWS V14.01,2013-12-03 17:30:00,
2013-12-03 11:32:00,56.9,34.1,29.48,ESE,121,5.0,7.0,42,0.00,,---,0.00,468.00,VWS V14.01,2013-12-03 17:32:00,
2013-12-03 11:37:00,57.6,34.1,29.48,South,170,5.0,7.0,41,0.00,,---,0.00,438.00,VWS V14.01,2013-12-03 17:37:00,
2013-12-03 11:42:00,58.6,34.4,29.48,South,177,2.0,7.0,40,0.00,,---,0.00,489.00,VWS V14.01,2013-12-03 17:42:00,
2013-12-03 11:47:00,59.3,34.4,29.48,South,191,5.0,8.0,39,0.00,,---,0.00,473.00,VWS V14.01,2013-12-03 17:47:00,
2013-12-03 11:52:00,59.6,33.3,29.48,SE,133,7.0,11.0,37,0.00,,---,0.00,410.00,VWS V14.01,2013-12-03 17:52:00,
2013-12-03 11:57:00,59.8,33.5,29.47,South,186,3.0,11.0,37,0.00,,---,0.00,457.00,VWS V14.01,2013-12-03 17:57:00,
2013-12-03 12:00:00,59.9,33.6,29.47,South,184,4.0,11.0,37,0.00,,---,0.00,471.00,VWS V14.01,2013-12-03 18:00:00,
2013-12-03 12:02:00,60.2,33.2,29.47,SSE,167,5.0,9.0,36,0.00,,---,0.00,459.00,VWS V14.01,2013-12-03 18:02:00,
2013-12-03 12:07:00,60.9,33.8,29.47,South,178,5.0,9.0,36,0.00,,---,0.00,478.00,VWS V14.01,2013-12-03 18:07:00,
2013-12-03 12:12:00,60.5,33.4,29.47,SSW,202,4.0,9.0,36,0.00,,---,0.00,478.00,VWS V14.01,2013-12-03 18:12:00,
2013-12-03 12:17:00,60.9,33.1,29.47,South,188,6.0,9.0,35,0.00,,---,0.00,394.00,VWS V14.01,2013-12-03 18:17:00,
2013-12-03 12:22:00,61.0,33.2,29.46,SW,220,4.0,9.0,35,0.00,,---,0.00,420.00,VWS V14.01,2013-12-03 18:22:00,
2013-12-03 12:27:00,61.3,32.7,29.46,SSW,192,1.0,9.0,34,0.00,,---,0.00,374.00,VWS V14.01,2013-12-03 18:27:00,
2013-12-03 12:30:00,61.6,32.2,29.46,SSW,192,0.0,9.0,33,0.00,,---,0.00,468.00,VWS V14.01,2013-12-03 18:30:00,
2013-12-03 12:32:00,61.8,32.4,29.46,SSW,192,1.0,2.0,33,0.00,,---,0.00,471.00,VWS V14.01,2013-12-03 18:32:00,
2013-12-03 12:37:00,62.0,31.0,29.46,NE,49,3.0,5.0,31,0.00,,---,0.00,338.00,VWS V14.01,2013-12-03 18:37:00,
2013-12-03 12:42:00,62.1,31.1,29.46,NE,49,2.0,5.0,31,0.00,,---,0.00,432.00,VWS V14.01,2013-12-03 18:42:00,
2013-12-03 12:47:00,62.3,31.3,29.46,NE,49,4.0,5.0,31,0.00,,---,0.00,443.00,VWS V14.01,2013-12-03 18:47:00,
2013-12-03 12:52:00,62.7,30.8,29.45,NE,44,2.0,6.0,30,0.00,,---,0.00,374.00,VWS V14.01,2013-12-03 18:52:00,
2013-12-03 12:57:00,63.2,30.4,29.45,NE,44,2.0,6.0,29,0.00,,---,0.00,218.00,VWS V14.01,2013-12-03 18:57:00,
2013-12-03 13:00:00,63.7,30.0,29.45,NE,44,0.0,6.0,28,0.00,,---,0.00,156.00,VWS V14.01,2013-12-03 19:00:00,
2013-12-03 13:02:00,64.5,30.7,29.45,NE,44,0.0,1.0,28,0.00,,---,0.00,83.00,VWS V14.01,2013-12-03 19:02:00,
2013-12-03 13:07:00,65.6,31.6,29.45,NE,44,0.0,1.0,28,0.00,,---,0.00,56.00,VWS V14.01,2013-12-03 19:07:00,
2013-12-03 13:12:00,66.0,31.1,29.45,NE,44,1.0,3.0,27,0.00,,---,0.00,49.00,VWS V14.01,2013-12-03 19:12:00,
2013-12-03 13:18:00,65.8,30.9,29.45,ESE,122,4.0,6.0,27,0.00,,---,0.00,49.00,VWS V14.01,2013-12-03 19:18:00,
2013-12-03 13:23:00,65.8,31.8,29.45,ESE,123,6.0,7.0,28,0.00,,---,0.00,49.00,VWS V14.01,2013-12-03 19:23:00,
2013-12-03 13:28:00,65.6,31.6,29.45,ESE,119,0.0,7.0,28,0.00,,---,0.00,46.00,VWS V14.01,2013-12-03 19:28:00,
2013-12-03 13:30:00,65.6,31.6,29.45,ESE,119,1.0,7.0,28,0.00,,---,0.00,46.00,VWS V14.01,2013-12-03 19:30:00,
2013-12-03 13:33:00,65.8,30.9,29.45,ESE,119,1.0,4.0,27,0.00,,---,0.00,44.00,VWS V14.01,2013-12-03 19:33:00,
2013-12-03 13:38:00,66.1,31.2,29.44,ESE,119,0.0,4.0,27,0.00,,---,0.00,40.00,VWS V14.01,2013-12-03 19:38:00,
2013-12-03 13:43:00,66.4,31.4,29.44,ESE,119,0.0,4.0,27,0.00,,---,0.00,39.00,VWS V14.01,2013-12-03 19:43:00,
2013-12-03 13:48:00,66.8,30.8,29.43,ESE,116,2.0,6.0,26,0.00,,---,0.00,37.00,VWS V14.01,2013-12-03 19:48:00,
2013-12-03 13:53:00,66.3,30.4,29.43,East,93,5.0,8.0,26,0.00,,---,0.00,37.00,VWS V14.01,2013-12-03 19:53:00,
2013-12-03 13:58:00,66.0,31.1,29.43,NNE,19,5.0,8.0,27,0.00,,---,0.00,33.00,VWS V14.01,2013-12-03 19:58:00,
2013-12-03 14:00:00,65.8,30.9,29.42,NNE,19,3.0,8.0,27,0.00,,---,0.00,33.00,VWS V14.01,2013-12-03 20:00:00,
2013-12-03 14:03:00,65.8,30.9,29.42,ENE,78,4.0,8.0,27,0.00,,---,0.00,33.00,VWS V14.01,2013-12-03 20:03:00,
2013-12-03 14:08:00,65.6,30.8,29.42,ENE,78,0.0,8.0,27,0.00,,---,0.00,33.00,VWS V14.01,2013-12-03 20:08:00,
2013-12-03 14:13:00,66.0,31.1,29.42,ENE,65,3.0,8.0,27,0.00,,---,0.00,32.00,VWS V14.01,2013-12-03 20:13:00,
2013-12-03 14:18:00,65.6,30.8,29.42,North,5,6.0,9.0,27,0.00,,---,0.00,32.00,VWS V14.01,2013-12-03 20:18:00,
2013-12-03 14:23:00,65.6,30.8,29.42,ENE,59,2.0,9.0,27,0.00,,---,0.00,30.00,VWS V14.01,2013-12-03 20:23:00,
2013-12-03 14:28:00,66.0,31.1,29.43,ENE,63,4.0,9.0,27,0.00,,---,0.00,30.00,VWS V14.01,2013-12-03 20:28:00,
2013-12-03 14:30:00,66.0,31.1,29.43,ENE,63,4.0,9.0,27,0.00,,---,0.00,30.00,VWS V14.01,2013-12-03 20:30:00,
2013-12-03 14:33:00,66.1,31.2,29.43,ENE,58,4.0,7.0,27,0.00,,---,0.00,30.00,VWS V14.01,2013-12-03 20:33:00,
2013-12-03 14:38:00,66.1,32.1,29.42,ENE,58,4.0,7.0,28,0.00,,---,0.00,30.00,VWS V14.01,2013-12-03 20:38:00,
2013-12-03 14:43:00,66.3,32.2,29.42,ENE,57,6.0,7.0,28,0.00,,---,0.00,30.00,VWS V14.01,2013-12-03 20:43:00,
2013-12-03 14:48:00,66.4,32.3,29.42,ENE,57,3.0,7.0,28,0.00,,---,0.00,30.00,VWS V14.01,2013-12-03 20:48:00,
2013-12-03 14:53:00,66.4,31.4,29.42,NNE,28,10.0,11.0,27,0.00,,---,0.00,30.00,VWS V14.01,2013-12-03 20:53:00,
2013-12-03 14:58:00,66.3,32.2,29.42,NNE,15,10.0,11.0,28,0.00,,---,0.00,30.00,VWS V14.01,2013-12-03 20:58:00,
2013-12-03 15:00:00,66.1,32.1,29.42,NE,36,7.0,11.0,28,0.00,,---,0.00,30.00,VWS V14.01,2013-12-03 21:00:00,
2013-12-03 15:03:00,66.3,32.2,29.42,NNE,13,7.0,10.0,28,0.00,,---,0.00,28.00,VWS V14.01,2013-12-03 21:03:00,
2013-12-03 15:08:00,66.1,32.1,29.42,North,10,10.0,11.0,28,0.00,,---,0.00,28.00,VWS V14.01,2013-12-03 21:08:00,
2013-12-03 15:13:00,66.1,32.1,29.41,North,11,6.0,11.0,28,0.00,,---,0.00,28.00,VWS V14.01,2013-12-03 21:13:00,
2013-12-03 15:18:00,66.3,32.2,29.42,NNE,32,5.0,11.0,28,0.00,,---,0.00,30.00,VWS V14.01,2013-12-03 21:18:00,
2013-12-03 15:23:00,66.3,32.2,29.42,NNE,33,7.0,11.0,28,0.00,,---,0.00,30.00,VWS V14.01,2013-12-03 21:23:00,
2013-12-03 15:28:00,66.1,32.1,29.41,NE,44,6.0,11.0,28,0.00,,---,0.00,32.00,VWS V14.01,2013-12-03 21:28:00,
2013-12-03 15:30:00,66.1,32.1,29.41,NE,49,8.0,11.0,28,0.00,,---,0.00,32.00,VWS V14.01,2013-12-03 21:30:00,
2013-12-03 15:33:00,66.1,32.1,29.42,ENE,64,8.0,11.0,28,0.00,,---,0.00,32.00,VWS V14.01,2013-12-03 21:33:00,
2013-12-03 15:38:00,66.1,32.1,29.41,NE,46,7.0,13.0,28,0.00,,---,0.00,32.00,VWS V14.01,2013-12-03 21:38:00,
2013-12-03 15:43:00,65.8,31.8,29.41,NE,46,7.0,14.0,28,0.00,,---,0.00,32.00,VWS V14.01,2013-12-03 21:43:00,
2013-12-03 15:48:00,65.6,31.6,29.41,ENE,60,11.0,14.0,28,0.00,,---,0.00,28.00,VWS V14.01,2013-12-03 21:48:00,
2013-12-03 15:53:00,65.6,31.6,29.41,NE,56,5.0,14.0,28,0.00,,---,0.00,28.00,VWS V14.01,2013-12-03 21:53:00,
2013-12-03 15:58:00,65.8,31.8,29.42,ENE,65,4.0,14.0,28,0.00,,---,0.00,26.00,VWS V14.01,2013-12-03 21:58:00,
2013-12-03 16:00:00,65.8,31.8,29.42,ENE,74,4.0,14.0,28,0.00,,---,0.00,26.00,VWS V14.01,2013-12-03 22:00:00,
2013-12-03 16:03:00,65.8,31.8,29.42,NE,52,8.0,8.0,28,0.00,,---,0.00,26.00,VWS V14.01,2013-12-03 22:03:00,
2013-12-03 16:08:00,65.8,31.8,29.42,ENE,57,10.0,11.0,28,0.00,,---,0.00,26.00,VWS V14.01,2013-12-03 22:08:00,
2013-12-03 16:13:00,65.5,31.6,29.42,NNE,30,11.0,11.0,28,0.00,,---,0.00,30.00,VWS V14.01,2013-12-03 22:13:00,
2013-12-03 16:18:00,65.0,31.1,29.42,NE,50,8.0,11.0,28,0.00,,---,0.00,44.00,VWS V14.01,2013-12-03 22:18:00,
2013-12-03 16:23:00,64.5,31.6,29.43,NE,38,7.0,11.0,29,0.00,,---,0.00,63.00,VWS V14.01,2013-12-03 22:23:00,
2013-12-03 16:28:00,64.3,31.4,29.43,ENE,73,6.0,12.0,29,0.00,,---,0.00,62.00,VWS V14.01,2013-12-03 22:28:00,
2013-12-03 16:30:00,64.2,31.3,29.43,NE,53,5.0,12.0,29,0.00,,---,0.00,69.00,VWS V14.01,2013-12-03 22:30:00,
2013-12-03 16:33:00,64.0,31.1,29.43,ENE,69,7.0,10.0,29,0.00,,---,0.00,74.00,VWS V14.01,2013-12-03 22:33:00,
2013-12-03 16:38:00,63.9,31.9,29.43,NE,51,8.0,10.0,30,0.00,,---,0.00,70.00,VWS V14.01,2013-12-03 22:38:00,
2013-12-03 16:43:00,63.5,31.5,29.43,ENE,77,7.0,11.0,30,0.00,,---,0.00,60.00,VWS V14.01,2013-12-03 22:43:00,
2013-12-03 16:48:00,62.9,32.6,29.43,NE,38,9.0,16.0,32,0.00,,---,0.00,47.00,VWS V14.01,2013-12-03 22:48:00,
2013-12-03 16:53:00,61.8,33.2,29.44,NE,49,7.0,16.0,34,0.00,,---,0.00,33.00,VWS V14.01,2013-12-03 22:53:00,
2013-12-03 16:58:00,60.9,33.1,29.44,NNE,22,6.0,16.0,35,0.00,,---,0.00,21.00,VWS V14.01,2013-12-03 22:58:00,
2013-12-03 17:00:00,60.7,32.9,29.44,NNE,26,14.0,16.0,35,0.00,,---,0.00,18.00,VWS V14.01,2013-12-03 23:00:00,
2013-12-03 17:03:00,59.8,33.5,29.44,NNE,21,16.0,17.0,37,0.00,,---,0.00,12.00,VWS V14.01,2013-12-03 23:03:00,
2013-12-03 17:08:00,58.1,33.3,29.45,NNE,12,10.0,20.0,39,0.00,,---,0.00,11.00,VWS V14.01,2013-12-03 23:08:00,
2013-12-03 17:13:00,56.9,33.5,29.45,NNE,13,13.0,20.0,41,0.00,,---,0.00,9.00,VWS V14.01,2013-12-03 23:13:00,
2013-12-03 17:18:00,56.3,33.5,29.45,NNE,32,7.0,20.0,42,0.00,,---,0.00,5.00,VWS V14.01,2013-12-03 23:18:00,
2013-12-03 17:23:00,55.7,33.0,29.45,NNE,20,6.0,20.0,42,0.00,,---,0.00,0.00,VWS V14.01,2013-12-03 23:23:00,
2013-12-03 17:28:00,55.3,33.2,29.46,NE,34,7.0,20.0,43,0.00,,---,0.00,0.00,VWS V14.01,2013-12-03 23:28:00,
2013-12-03 17:30:00,55.1,33.6,29.46,NNE,30,5.0,20.0,44,0.00,,---,0.00,0.00,VWS V14.01,2013-12-03 23:30:00,
2013-12-03 17:33:00,54.8,33.3,29.46,NE,50,7.0,10.0,44,0.00,,---,0.00,0.00,VWS V14.01,2013-12-03 23:33:00,
2013-12-03 17:38:00,54.5,33.6,29.46,North,355,17.0,17.0,45,0.00,,---,0.00,0.00,VWS V14.01,2013-12-03 23:38:00,
2013-12-03 17:43:00,53.2,33.5,29.46,NE,44,16.0,21.0,47,0.00,,---,0.00,0.00,VWS V14.01,2013-12-03 23:43:00,
2013-12-03 17:48:00,52.5,33.4,29.46,NE,34,11.0,21.0,48,0.00,,---,0.00,0.00,VWS V14.01,2013-12-03 23:48:00,
2013-12-03 17:53:00,51.9,33.4,29.46,NE,36,11.0,21.0,49,0.00,,---,0.00,0.00,VWS V14.01,2013-12-03 23:53:00,
2013-12-03 17:58:00,51.7,33.7,29.47,NE,44,7.0,21.0,50,0.00,,---,0.00,0.00,VWS V14.01,2013-12-03 23:58:00,
2013-12-03 18:00:00,51.6,33.6,29.47,NNE,24,7.0,21.0,50,0.00,,---,0.00,0.00,VWS V14.01,2013-12-04 00:00:00,
2013-12-03 18:03:00,51.3,33.3,29.47,ENE,57,12.0,14.0,50,0.00,,---,0.00,0.00,VWS V14.01,2013-12-04 00:03:00,
2013-12-03 18:08:00,51.0,33.5,29.47,ENE,61,18.0,18.0,51,0.00,,---,0.00,0.00,VWS V14.01,2013-12-04 00:08:00,
2013-12-03 18:13:00,50.4,33.5,29.48,NE,42,6.0,19.0,52,0.00,,---,0.00,0.00,VWS V14.01,2013-12-04 00:13:00,
2013-12-03 18:18:00,50.1,33.2,29.48,NE,50,14.0,19.0,52,0.00,,---,0.00,0.00,VWS V14.01,2013-12-04 00:18:00,
2013-12-03 18:23:00,49.6,33.2,29.48,NNE,24,10.0,19.0,53,0.00,,---,0.00,0.00,VWS V14.01,2013-12-04 00:23:00,
2013-12-03 18:28:00,49.2,33.3,29.48,NE,36,17.0,23.0,54,0.00,,---,0.00,0.00,VWS V14.01,2013-12-04 00:28:00,
2013-12-03 18:30:00,49.2,33.3,29.48,NE,53,15.0,23.0,54,0.00,,---,0.00,0.00,VWS V14.01,2013-12-04 00:30:00,
2013-12-03 18:33:00,48.9,33.5,29.49,NNE,14,11.0,20.0,55,0.00,,---,0.00,0.00,VWS V14.01,2013-12-04 00:33:00,
2013-12-03 18:38:00,48.5,33.1,29.49,North,360,18.0,20.0,55,0.00,,---,0.00,0.00,VWS V14.01,2013-12-04 00:38:00,
2013-12-03 18:43:00,48.0,33.1,29.49,NE,49,15.0,20.0,56,0.00,,---,0.00,0.00,VWS V14.01,2013-12-04 00:43:00,
2013-12-03 18:48:00,47.7,32.8,29.49,NE,44,12.0,20.0,56,0.00,,---,0.00,0.00,VWS V14.01,2013-12-04 00:48:00,
2013-12-03 18:53:00,47.4,33.0,29.49,NE,49,8.0,20.0,57,0.00,,---,0.00,0.00,VWS V14.01,2013-12-04 00:53:00,
2013-12-03 18:58:00,47.0,33.0,29.49,NNE,18,12.0,20.0,58,0.00,,---,0.00,0.00,VWS V14.01,2013-12-04 00:58:00,
2013-12-03 19:00:00,47.0,33.0,29.49,ENE,63,11.0,20.0,58,0.00,,---,0.00,0.00,VWS V14.01,2013-12-04 01:00:00,
2013-12-03 19:03:00,46.8,32.8,29.49,NE,49,13.0,13.0,58,0.00,,---,0.00,0.00,VWS V14.01,2013-12-04 01:03:00,
2013-12-03 19:08:00,46.5,32.5,29.49,NE,37,12.0,13.0,58,0.00,,---,0.00,0.00,VWS V14.01,2013-12-04 01:08:00,
2013-12-03 19:13:00,46.2,32.7,29.49,NNE,30,9.0,14.0,59,0.00,,---,0.00,0.00,VWS V14.01,2013-12-04 01:13:00,
2013-12-03 19:18:00,46.1,32.6,29.50,NNE,17,8.0,14.0,59,0.00,,---,0.00,0.00,VWS V14.01,2013-12-04 01:18:00,
2013-12-03 19:23:00,45.8,32.3,29.50,NE,35,7.0,14.0,59,0.00,,---,0.00,0.00,VWS V14.01,2013-12-04 01:23:00,
2013-12-03 19:28:00,45.7,32.6,29.51,NNE,13,11.0,16.0,60,0.00,,---,0.00,0.00,VWS V14.01,2013-12-04 01:28:00,
2013-12-03 19:30:00,45.5,32.4,29.51,NE,38,13.0,17.0,60,0.00,,---,0.00,0.00,VWS V14.01,2013-12-04 01:30:00,
2013-12-03 19:33:00,45.4,32.3,29.51,NNE,25,8.0,16.0,60,0.00,,---,0.00,0.00,VWS V14.01,2013-12-04 01:33:00,
2013-12-03 19:38:00,45.1,32.5,29.51,North,350,9.0,16.0,61,0.00,,---,0.00,0.00,VWS V14.01,2013-12-04 01:38:00,
2013-12-03 19:43:00,44.8,32.2,29.52,North,5,7.0,18.0,61,0.00,,---,0.00,0.00,VWS V14.01,2013-12-04 01:43:00,
2013-12-03 19:48:00,44.6,32.0,29.52,NNE,12,11.0,18.0,61,0.00,,---,0.00,0.00,VWS V14.01,2013-12-04 01:48:00,
2013-12-03 19:53:00,44.3,32.1,29.53,North,9,7.0,18.0,62,0.00,,---,0.00,0.00,VWS V14.01,2013-12-04 01:53:00,
2013-12-03 19:58:00,44.2,32.0,29.53,NNE,23,5.0,18.0,62,0.00,,---,0.00,0.00,VWS V14.01,2013-12-04 01:58:00,
2013-12-03 20:00:00,44.2,32.0,29.53,North,5,11.0,18.0,62,0.00,,---,0.00,0.00,VWS V14.01,2013-12-04 02:00:00,
2013-12-03 20:03:00,44.1,31.9,29.53,NNE,12,7.0,14.0,62,0.00,,---,0.00,0.00,VWS V14.01,2013-12-04 02:03:00,
2013-12-03 20:08:00,43.8,32.0,29.53,North,5,10.0,14.0,63,0.00,,---,0.00,0.00,VWS V14.01,2013-12-04 02:08:00,
2013-12-03 20:13:00,43.3,32.0,29.54,North,355,15.0,15.0,64,0.00,,---,0.00,0.00,VWS V14.01,2013-12-04 02:13:00,
2013-12-03 20:18:00,43.2,31.9,29.54,North,5,8.0,15.0,64,0.00,,---,0.00,0.00,VWS V14.01,2013-12-04 02:18:00,
2013-12-03 20:23:00,42.9,32.0,29.54,North,5,8.0,15.0,65,0.00,,---,0.00,0.00,VWS V14.01,2013-12-04 02:23:00,
2013-12-03 20:28:00,42.8,31.9,29.55,NNW,346,11.0,15.0,65,0.00,,---,0.00,0.00,VWS V14.01,2013-12-04 02:28:00,
2013-12-03 20:30:00,42.8,31.9,29.55,North,11,14.0,16.0,65,0.00,,---,0.00,0.00,VWS V14.01,2013-12-04 02:30:00,
2013-12-03 20:33:00,42.5,31.6,29.54,North,351,13.0,17.0,65,0.00,,---,0.00,0.00,VWS V14.01,2013-12-04 02:33:00,
2013-12-03 20:38:00,42.2,31.7,29.54,NNE,18,17.0,17.0,66,0.00,,---,0.00,0.00,VWS V14.01,2013-12-04 02:38:00,
2013-12-03 20:43:00,42.1,32.0,29.53,NNE,19,14.0,20.0,67,0.00,,---,0.00,0.00,VWS V14.01,2013-12-04 02:43:00,
2013-12-03 20:48:00,41.8,31.7,29.53,NNE,17,12.0,20.0,67,0.00,,---,0.00,0.00,VWS V14.01,2013-12-04 02:48:00,
2013-12-03 20:53:00,41.5,31.7,29.54,NNE,19,14.0,20.0,68,0.00,,---,0.00,0.00,VWS V14.01,2013-12-04 02:53:00,
2013-12-03 20:58:00,41.3,31.5,29.54,North,5,7.0,20.0,68,0.00,,---,0.00,0.00,VWS V14.01,2013-12-04 02:58:00,
2013-12-03 21:00:00,41.3,31.5,29.54,North,355,14.0,20.0,68,0.00,,---,0.00,0.00,VWS V14.01,2013-12-04 03:00:00,
2013-12-03 21:03:00,41.1,31.7,29.54,NNE,19,10.0,18.0,69,0.00,,---,0.00,0.00,VWS V14.01,2013-12-04 03:03:00,
2013-12-03 21:08:00,40.8,31.4,29.53,ENE,57,18.0,18.0,69,0.00,,---,0.00,0.00,VWS V14.01,2013-12-04 03:08:00,
2013-12-03 21:13:00,40.6,31.6,29.54,North,5,9.0,19.0,70,0.00,,---,0.00,0.00,VWS V14.01,2013-12-04 03:13:00,
2013-12-03 21:18:00,40.5,31.5,29.54,NNE,28,8.0,19.0,70,0.00,,---,0.00,0.00,VWS V14.01,2013-12-04 03:18:00,
2013-12-03 21:23:00,40.2,31.6,29.54,North,360,10.0,19.0,71,0.00,,---,0.00,0.00,VWS V14.01,2013-12-04 03:23:00,
2013-12-03 21:28:00,40.1,31.5,29.54,NNE,28,7.0,19.0,71,0.00,,---,0.00,0.00,VWS V14.01,2013-12-04 03:28:00,
2013-12-03 21:30:00,40.1,31.5,29.54,North,5,4.0,19.0,71,0.00,,---,0.00,0.00,VWS V14.01,2013-12-04 03:30:00,
2013-12-03 21:33:00,40.1,31.5,29.54,NNE,19,10.0,14.0,71,0.00,,---,0.00,0.00,VWS V14.01,2013-12-04 03:33:00,
2013-12-03 21:38:00,39.9,32.6,29.54,NNE,13,11.0,14.0,75,0.00,,---,0.00,0.00,VWS V14.01,2013-12-04 03:38:00,
2013-12-03 21:43:00,39.8,31.5,29.54,North,355,14.0,19.0,72,0.00,,---,0.00,0.00,VWS V14.01,2013-12-04 03:43:00,
2013-12-03 21:48:00,39.6,31.3,29.54,NNE,29,9.0,19.0,72,0.00,,---,0.00,0.00,VWS V14.01,2013-12-04 03:48:00,
2013-12-03 21:53:00,39.6,31.3,29.54,NNE,32,10.0,19.0,72,0.00,,---,0.00,0.00,VWS V14.01,2013-12-04 03:53:00,
2013-12-03 22:00:00,39.5,31.6,29.54,NNE,16,13.0,19.0,73,0.00,,---,0.00,0.00,VWS V14.01,2013-12-04 04:00:00,
2013-12-03 22:03:00,39.5,31.6,29.54,North,11,10.0,16.0,73,0.00,,---,0.00,0.00,VWS V14.01,2013-12-04 04:03:00,
2013-12-03 22:08:00,39.3,31.4,29.55,NNE,13,13.0,16.0,73,0.00,,---,0.00,0.00,VWS V14.01,2013-12-04 04:08:00,
2013-12-03 22:13:00,39.3,31.4,29.55,North,11,10.0,20.0,73,0.00,,---,0.00,0.00,VWS V14.01,2013-12-04 04:13:00,
2013-12-03 22:18:00,39.5,31.6,29.55,North,10,12.0,20.0,73,0.00,,---,0.00,0.00,VWS V14.01,2013-12-04 04:18:00,
2013-12-03 22:23:00,39.5,31.6,29.55,NNE,19,11.0,20.0,73,0.00,,---,0.00,0.00,VWS V14.01,2013-12-04 04:23:00,
2013-12-03 22:28:00,39.6,31.7,29.55,NE,49,8.0,20.0,73,0.00,,---,0.00,0.00,VWS V14.01,2013-12-04 04:28:00,
2013-12-03 22:30:00,39.6,31.7,29.55,NNE,16,10.0,20.0,73,0.00,,---,0.00,0.00,VWS V14.01,2013-12-04 04:30:00,
2013-12-03 22:33:00,39.6,31.7,29.55,North,10,12.0,17.0,73,0.00,,---,0.00,0.00,VWS V14.01,2013-12-04 04:33:00,
2013-12-03 22:38:00,39.5,31.9,29.55,North,350,8.0,19.0,74,0.00,,---,0.00,0.00,VWS V14.01,2013-12-04 04:38:00,
2013-12-03 22:43:00,39.5,31.9,29.55,NE,36,6.0,19.0,74,0.00,,---,0.00,0.00,VWS V14.01,2013-12-04 04:43:00,
2013-12-03 22:48:00,39.5,31.9,29.56,NNE,12,10.0,19.0,74,0.00,,---,0.00,0.00,VWS V14.01,2013-12-04 04:48:00,
2013-12-03 22:53:00,39.5,31.9,29.56,NNW,347,10.0,19.0,74,0.00,,---,0.00,0.00,VWS V14.01,2013-12-04 04:53:00,
2013-12-03 22:58:00,39.5,31.9,29.57,NNW,344,9.0,19.0,74,0.00,,---,0.00,0.00,VWS V14.01,2013-12-04 04:58:00,
2013-12-03 23:00:00,39.5,31.9,29.57,North,355,5.0,19.0,74,0.00,,---,0.00,0.00,VWS V14.01,2013-12-04 05:00:00,
2013-12-03 23:01:00,39.5,31.9,29.57,North,350,8.0,10.0,74,0.00,,---,0.00,0.00,VWS V14.01,2013-12-04 05:01:00,
2013-12-03 23:06:00,39.5,31.9,29.56,North,351,14.0,14.0,74,0.00,,---,0.00,0.00,VWS V14.01,2013-12-04 05:06:00,
2013-12-03 23:11:00,39.3,31.7,29.57,North,355,12.0,16.0,74,0.00,,---,0.00,0.00,VWS V14.01,2013-12-04 05:11:00,
2013-12-03 23:16:00,39.2,31.6,29.57,NNW,336,11.0,16.0,74,0.00,,---,0.00,0.00,VWS V14.01,2013-12-04 05:16:00,
2013-12-03 23:21:00,39.1,31.5,29.56,NNW,345,12.0,16.0,74,0.00,,---,0.00,0.00,VWS V14.01,2013-12-04 05:21:00,
2013-12-03 23:26:00,38.6,31.4,29.56,North,5,11.0,18.0,75,0.00,,---,0.00,0.00,VWS V14.01,2013-12-04 05:26:00,
2013-12-03 23:30:00,38.5,31.3,29.56,NNE,26,8.0,19.0,75,0.00,,---,0.00,0.00,VWS V14.01,2013-12-04 05:30:00,
2013-12-03 23:31:00,38.3,31.1,29.56,NNE,19,12.0,15.0,75,0.00,,---,0.00,0.00,VWS V14.01,2013-12-04 05:31:00,
2013-12-03 23:36:00,38.2,31.0,29.56,NNE,20,14.0,18.0,75,0.00,,---,0.00,0.00,VWS V14.01,2013-12-04 05:36:00,
2013-12-03 23:41:00,38.0,31.1,29.56,North,355,10.0,20.0,76,0.00,,---,0.00,0.00,VWS V14.01,2013-12-04 05:41:00,
2013-12-03 23:46:00,38.0,31.1,29.56,NNW,333,14.0,20.0,76,0.00,,---,0.00,0.00,VWS V14.01,2013-12-04 05:46:00,
2013-12-03 23:51:00,37.9,31.0,29.56,North,355,15.0,20.0,76,0.00,,---,0.00,0.00,VWS V14.01,2013-12-04 05:51:00,
2013-12-03 23:56:00,37.5,30.6,29.56,North,5,14.0,20.0,76,0.00,,---,0.00,0.00,VWS V14.01,2013-12-04 05:56:00,